Time,TemperatureF,DewpointF,PressureIn,WindDirection,WindDirectionDegrees,WindSpeedMPH,WindSpeedGustMPH,Humidity,HourlyPrecipIn,Conditions,Clouds,dailyrainin,SolarRadiationWatts/m^2,SoftwareType,DateUTC
2013-01-23 00:22:00,40.0,0.0,-100.00,ESE,119,2.0,10.0,18,0.00,,,0.00,0.000000,,2013-01-23 08:22:00,
2013-01-23 00:33:00,40.0,0.0,-100.00,ESE,119,2.0,10.0,18,0.00,,,0.00,0.000000,,2013-01-23 08:33:00,
2013-01-23 00:42:00,40.0,0.0,-100.00,ESE,119,2.0,10.0,18,0.00,,,0.00,0.000000,,2013-01-23 08:42:00,
2013-01-23 00:51:00,41.0,-2.0,-100.00,ESE,119,0.0,7.0,16,0.00,,,0.00,0.000000,,2013-01-23 08:51:00,
2013-01-23 01:12:00,41.0,-2.0,-100.00,ESE,119,0.0,7.0,16,0.00,,,0.00,0.000000,,2013-01-23 09:12:00,
2013-01-23 01:22:00,41.0,-2.0,-100.00,ESE,119,0.0,7.0,16,0.00,,,0.00,0.000000,,2013-01-23 09:22:00,
2013-01-23 01:32:00,41.0,-2.0,-100.00,ESE,119,0.0,7.0,16,0.00,,,0.00,0.000000,,2013-01-23 09:32:00,
2013-01-23 01:43:00,41.0,-2.0,-100.00,ESE,119,0.0,7.0,16,0.00,,,0.00,0.000000,,2013-01-23 09:43:00,
2013-01-23 01:51:00,42.0,-2.0,-100.00,SE,139,4.0,7.0,15,0.00,,,-99.99,0.000000,,2013-01-23 09:51:00,
2013-01-23 02:12:00,42.0,-2.0,-100.00,SE,139,4.0,7.0,15,0.00,,,-99.99,0.000000,,2013-01-23 10:12:00,
2013-01-23 02:22:00,42.0,-2.0,-100.00,SE,139,4.0,7.0,15,0.00,,,-99.99,0.000000,,2013-01-23 10:22:00,
2013-01-23 02:32:00,42.0,-2.0,-100.00,SE,139,4.0,7.0,15,0.00,,,-99.99,0.000000,,2013-01-23 10:32:00,
2013-01-23 02:42:00,42.0,-2.0,-100.00,SE,139,4.0,7.0,15,0.00,,,-99.99,0.000000,,2013-01-23 10:42:00,
2013-01-23 02:51:00,43.0,5.0,-100.00,SSE,155,5.0,10.0,20,0.00,,,0.00,0.000000,,2013-01-23 10:51:00,
2013-01-23 03:12:00,43.0,5.0,-100.00,SSE,155,5.0,10.0,20,0.00,,,0.00,0.000000,,2013-01-23 11:12:00,
2013-01-23 03:22:00,43.0,5.0,-100.00,SSE,155,5.0,10.0,20,0.00,,,0.00,0.000000,,2013-01-23 11:22:00,
2013-01-23 03:33:00,43.0,5.0,-100.00,SSE,155,5.0,10.0,20,0.00,,,0.00,0.000000,,2013-01-23 11:33:00,
2013-01-23 03:42:00,43.0,5.0,-100.00,SSE,155,5.0,10.0,20,0.00,,,0.00,0.000000,,2013-01-23 11:42:00,
2013-01-23 03:51:00,42.0,8.0,-100.00,SE,143,5.0,13.0,24,0.00,,,0.00,0.000000,,2013-01-23 11:51:00,
2013-01-23 04:12:00,42.0,8.0,-100.00,SE,143,5.0,13.0,24,0.00,,,0.00,0.000000,,2013-01-23 12:12:00,
2013-01-23 04:22:00,42.0,8.0,-100.00,SE,143,5.0,13.0,24,0.00,,,0.00,0.000000,,2013-01-23 12:22:00,
2013-01-23 04:33:00,42.0,8.0,-100.00,SE,143,5.0,13.0,24,0.00,,,0.00,0.000000,,2013-01-23 12:33:00,
2013-01-23 04:42:00,42.0,8.0,-100.00,SE,143,5.0,13.0,24,0.00,,,0.00,0.000000,,2013-01-23 12:42:00,
2013-01-23 04:51:00,41.0,9.0,-100.00,SE,133,5.0,11.0,26,0.00,,,0.00,0.000000,,2013-01-23 12:51:00,
2013-01-23 05:12:00,41.0,9.0,-100.00,SE,133,5.0,11.0,26,0.00,,,0.00,0.000000,,2013-01-23 13:12:00,
2013-01-23 05:23:00,41.0,9.0,-100.00,SE,133,5.0,11.0,26,0.00,,,0.00,0.000000,,2013-01-23 13:23:00,
2013-01-23 05:33:00,41.0,9.0,-100.00,SE,133,5.0,11.0,26,0.00,,,0.00,0.000000,,2013-01-23 13:33:00,
2013-01-23 05:42:00,41.0,9.0,-100.00,SE,133,5.0,11.0,26,0.00,,,0.00,0.000000,,2013-01-23 13:42:00,
2013-01-23 06:51:00,41.0,8.0,-100.00,SE,133,8.0,13.0,25,-99.99,,,0.00,0.000000,,2013-01-23 14:51:00,
2013-01-23 07:12:00,41.0,8.0,-100.00,SE,133,8.0,13.0,25,-99.99,,,0.00,0.000000,,2013-01-23 15:12:00,
2013-01-23 07:22:00,41.0,8.0,-100.00,SE,133,8.0,13.0,25,-99.99,,,0.00,0.000000,,2013-01-23 15:22:00,
2013-01-23 07:33:00,41.0,8.0,-100.00,SE,133,8.0,13.0,25,-99.99,,,0.00,0.000000,,2013-01-23 15:33:00,
2013-01-23 07:43:00,41.0,8.0,-100.00,SE,133,8.0,13.0,25,-99.99,,,0.00,0.000000,,2013-01-23 15:43:00,
2013-01-23 07:51:00,41.0,11.0,-100.00,SSE,150,7.0,15.0,29,0.00,,,0.00,13.000000,,2013-01-23 15:51:00,
2013-01-23 08:22:00,41.0,11.0,-100.00,SSE,150,7.0,15.0,29,0.00,,,0.00,13.000000,,2013-01-23 16:22:00,
2013-01-23 08:32:00,41.0,11.0,-100.00,SSE,150,7.0,15.0,29,0.00,,,0.00,13.000000,,2013-01-23 16:32:00,
2013-01-23 08:42:00,41.0,11.0,-100.00,SSE,150,7.0,15.0,29,0.00,,,0.00,13.000000,,2013-01-23 16:42:00,
2013-01-23 08:51:00,41.0,17.0,-100.00,SE,129,6.0,15.0,37,0.00,,,-99.99,76.000000,,2013-01-23 16:51:00,
2013-01-23 09:22:00,41.0,17.0,-100.00,SE,129,6.0,15.0,37,0.00,,,-99.99,76.000000,,2013-01-23 17:22:00,
2013-01-23 09:33:00,41.0,17.0,-100.00,SE,129,6.0,15.0,37,0.00,,,-99.99,76.000000,,2013-01-23 17:33:00,
2013-01-23 09:42:00,41.0,17.0,-100.00,SE,129,6.0,15.0,37,0.00,,,-99.99,76.000000,,2013-01-23 17:42:00,
2013-01-23 09:51:00,42.0,21.0,-100.00,SSE,153,6.0,15.0,42,0.00,,,0.00,152.000000,,2013-01-23 17:51:00,
2013-01-23 10:12:00,42.0,21.0,-100.00,SSE,153,6.0,15.0,42,0.00,,,0.00,152.000000,,2013-01-23 18:12:00,
2013-01-23 10:23:00,42.0,21.0,-100.00,SSE,153,6.0,15.0,42,0.00,,,0.00,152.000000,,2013-01-23 18:23:00,
2013-01-23 10:33:00,42.0,21.0,-100.00,SSE,153,6.0,15.0,42,0.00,,,0.00,152.000000,,2013-01-23 18:33:00,
2013-01-23 10:43:00,42.0,21.0,-100.00,SSE,153,6.0,15.0,42,0.00,,,0.00,152.000000,,2013-01-23 18:43:00,
2013-01-23 10:51:00,43.0,22.0,-100.00,SSE,156,7.0,15.0,43,0.00,,,0.00,155.000000,,2013-01-23 18:51:00,
2013-01-23 11:13:00,43.0,22.0,-100.00,SSE,156,7.0,15.0,43,0.00,,,0.00,155.000000,,2013-01-23 19:13:00,
2013-01-23 11:22:00,43.0,22.0,-100.00,SSE,156,7.0,15.0,43,0.00,,,0.00,155.000000,,2013-01-23 19:22:00,
2013-01-23 11:33:00,43.0,22.0,-100.00,SSE,156,7.0,15.0,43,0.00,,,0.00,155.000000,,2013-01-23 19:33:00,
2013-01-23 11:42:00,43.0,22.0,-100.00,SSE,156,7.0,15.0,43,0.00,,,0.00,155.000000,,2013-01-23 19:42:00,
2013-01-23 11:51:00,44.0,24.0,-100.00,SSE,160,6.0,11.0,45,0.00,,,0.00,174.000000,,2013-01-23 19:51:00,
2013-01-23 12:23:00,44.0,24.0,-100.00,SSE,160,6.0,11.0,45,0.00,,,0.00,174.000000,,2013-01-23 20:23:00,
2013-01-23 12:32:00,44.0,24.0,-100.00,SSE,160,6.0,11.0,45,0.00,,,0.00,174.000000,,2013-01-23 20:32:00,
2013-01-23 12:42:00,44.0,24.0,-100.00,SSE,160,6.0,11.0,45,0.00,,,0.00,174.000000,,2013-01-23 20:42:00,
2013-01-23 12:51:00,44.0,23.0,-100.00,SSE,163,6.0,12.0,44,0.00,,,0.00,301.000000,,2013-01-23 20:51:00,
2013-01-23 13:12:00,44.0,23.0,-100.00,SSE,163,6.0,12.0,44,0.00,,,0.00,301.000000,,2013-01-23 21:12:00,
2013-01-23 13:22:00,44.0,23.0,-100.00,SSE,163,6.0,12.0,44,0.00,,,0.00,301.000000,,2013-01-23 21:22:00,
2013-01-23 13:33:00,44.0,23.0,-100.00,SSE,163,6.0,12.0,44,0.00,,,0.00,301.000000,,2013-01-23 21:33:00,
2013-01-23 13:42:00,44.0,23.0,-100.00,SSE,163,6.0,12.0,44,0.00,,,0.00,301.000000,,2013-01-23 21:42:00,
2013-01-23 13:51:00,42.0,23.0,-100.00,SSE,168,7.0,10.0,47,0.00,,,0.00,147.000000,,2013-01-23 21:51:00,
2013-01-23 14:22:00,42.0,23.0,-100.00,SSE,168,7.0,10.0,47,0.00,,,0.00,147.000000,,2013-01-23 22:22:00,
2013-01-23 14:33:00,42.0,23.0,-100.00,SSE,168,7.0,10.0,47,0.00,,,0.00,147.000000,,2013-01-23 22:33:00,
2013-01-23 14:42:00,42.0,23.0,-100.00,SSE,168,7.0,10.0,47,0.00,,,0.00,147.000000,,2013-01-23 22:42:00,
2013-01-23 14:51:00,42.0,23.0,-100.00,South,181,8.0,15.0,47,0.00,,,0.00,63.000000,,2013-01-23 22:51:00,
2013-01-23 15:12:00,42.0,23.0,-100.00,South,181,8.0,15.0,47,0.00,,,0.00,63.000000,,2013-01-23 23:12:00,
2013-01-23 15:22:00,42.0,23.0,-100.00,South,181,8.0,15.0,47,0.00,,,0.00,63.000000,,2013-01-23 23:22:00,
2013-01-23 15:33:00,42.0,23.0,-100.00,South,181,8.0,15.0,47,0.00,,,0.00,63.000000,,2013-01-23 23:33:00,
2013-01-23 15:42:00,42.0,23.0,-100.00,South,181,8.0,15.0,47,0.00,,,0.00,63.000000,,2013-01-23 23:42:00,
2013-01-23 15:51:00,42.0,24.0,-100.00,South,186,7.0,19.0,48,0.00,,,0.00,46.000000,,2013-01-23 23:51:00,
2013-01-23 16:12:00,42.0,24.0,-100.00,South,186,7.0,19.0,48,0.00,,,0.00,46.000000,,2013-01-24 00:12:00,
2013-01-23 16:22:00,42.0,24.0,-100.00,South,186,7.0,19.0,48,0.00,,,0.00,46.000000,,2013-01-24 00:22:00,
2013-01-23 16:32:00,42.0,24.0,-100.00,South,186,7.0,19.0,48,0.00,,,0.00,46.000000,,2013-01-24 00:32:00,
2013-01-23 16:42:00,42.0,24.0,-100.00,South,186,7.0,19.0,48,0.00,,,0.00,46.000000,,2013-01-24 00:42:00,
2013-01-23 16:51:00,41.0,22.0,-100.00,SSE,153,7.0,16.0,47,0.00,,,0.00,29.000000,,2013-01-24 00:51:00,
2013-01-23 17:22:00,41.0,22.0,-100.00,SSE,153,7.0,16.0,47,0.00,,,0.00,29.000000,,2013-01-24 01:22:00,
2013-01-23 17:33:00,41.0,22.0,-100.00,SSE,153,7.0,16.0,47,0.00,,,0.00,29.000000,,2013-01-24 01:33:00,
2013-01-23 17:42:00,41.0,22.0,-100.00,SSE,153,7.0,16.0,47,0.00,,,0.00,29.000000,,2013-01-24 01:42:00,
2013-01-23 17:51:00,39.0,23.0,-100.00,South,170,9.0,17.0,53,0.00,,,0.00,1.000000,,2013-01-24 01:51:00,
2013-01-23 18:12:00,39.0,23.0,-100.00,South,170,9.0,17.0,53,0.00,,,0.00,1.000000,,2013-01-24 02:12:00,
2013-01-23 18:22:00,39.0,23.0,-100.00,South,170,9.0,17.0,53,0.00,,,0.00,1.000000,,2013-01-24 02:22:00,
2013-01-23 18:33:00,39.0,23.0,-100.00,South,170,9.0,17.0,53,0.00,,,0.00,1.000000,,2013-01-24 02:33:00,
2013-01-23 18:42:00,39.0,23.0,-100.00,South,170,9.0,17.0,53,0.00,,,0.00,1.000000,,2013-01-24 02:42:00,
2013-01-23 18:51:00,39.0,22.0,-100.00,South,169,8.0,17.0,50,0.00,,,0.00,0.000000,,2013-01-24 02:51:00,
2013-01-23 19:12:00,39.0,22.0,-100.00,South,169,8.0,17.0,50,0.00,,,0.00,0.000000,,2013-01-24 03:12:00,
2013-01-23 19:22:00,39.0,22.0,-100.00,South,169,8.0,17.0,50,0.00,,,0.00,0.000000,,2013-01-24 03:22:00,
2013-01-23 19:32:00,39.0,22.0,-100.00,South,169,8.0,17.0,50,0.00,,,0.00,0.000000,,2013-01-24 03:32:00,
2013-01-23 19:42:00,39.0,22.0,-100.00,South,169,8.0,17.0,50,0.00,,,0.00,0.000000,,2013-01-24 03:42:00,
2013-01-23 19:51:00,38.0,27.0,-100.00,SSE,161,9.0,19.0,65,0.00,,,0.00,0.000000,,2013-01-24 03:51:00,
2013-01-23 20:22:00,38.0,27.0,-100.00,SSE,161,9.0,19.0,65,0.00,,,0.00,0.000000,,2013-01-24 04:22:00,
2013-01-23 20:32:00,38.0,27.0,-100.00,SSE,161,9.0,19.0,65,0.00,,,0.00,0.000000,,2013-01-24 04:32:00,
2013-01-23 20:42:00,38.0,27.0,-100.00,SSE,161,9.0,19.0,65,0.00,,,0.00,0.000000,,2013-01-24 04:42:00,
2013-01-23 20:51:00,38.0,26.0,-100.00,SSE,151,10.0,20.0,61,0.00,,,0.00,0.000000,,2013-01-24 04:51:00,
2013-01-23 21:22:00,38.0,26.0,-100.00,SSE,151,10.0,20.0,61,0.00,,,0.00,0.000000,,2013-01-24 05:22:00,
2013-01-23 21:32:00,38.0,26.0,-100.00,SSE,151,10.0,20.0,61,0.00,,,0.00,0.000000,,2013-01-24 05:32:00,
2013-01-23 21:42:00,38.0,26.0,-100.00,SSE,151,10.0,20.0,61,0.00,,,0.00,0.000000,,2013-01-24 05:42:00,
2013-01-23 21:51:00,34.0,27.0,-100.00,SSE,151,10.0,23.0,76,0.00,,,0.00,0.000000,,2013-01-24 05:51:00,
2013-01-23 22:12:00,34.0,27.0,-100.00,SSE,151,10.0,23.0,76,0.00,,,0.00,0.000000,,2013-01-24 06:12:00,
2013-01-23 22:22:00,34.0,27.0,-100.00,SSE,151,10.0,23.0,76,0.00,,,0.00,0.000000,,2013-01-24 06:22:00,
2013-01-23 22:32:00,34.0,27.0,-100.00,SSE,151,10.0,23.0,76,0.00,,,0.00,0.000000,,2013-01-24 06:32:00,
2013-01-23 22:42:00,34.0,27.0,-100.00,SSE,151,10.0,23.0,76,0.00,,,0.00,0.000000,,2013-01-24 06:42:00,
2013-01-23 22:51:00,32.0,29.0,-100.00,SE,131,7.0,20.0,88,0.00,,,0.00,0.000000,,2013-01-24 06:51:00,
2013-01-23 23:22:00,32.0,29.0,-100.00,SE,131,7.0,20.0,88,0.00,,,0.00,0.000000,,2013-01-24 07:22:00,
2013-01-23 23:33:00,32.0,29.0,-100.00,SE,131,7.0,20.0,88,0.00,,,0.00,0.000000,,2013-01-24 07:33:00,
2013-01-23 23:42:00,32.0,29.0,-100.00,SE,131,7.0,20.0,88,0.00,,,0.00,0.000000,,2013-01-24 07:42:00,
2013-01-23 23:51:00,34.0,28.0,-100.00,SSE,148,11.0,15.0,77,0.00,,,0.00,0.000000,,2013-01-24 07:51:00,